Regional Weather Roundup
Issued by NWS Newport/Morehead, NC

Current Version | Previous Version | Graphics & Text | Print | Product List | Glossary Off
Versions: 1 2 3 4 5 6 7 8 9 10 11 12 13 14 15 16 17 18 19 20 21 22 23 24 25 26 27 28 29 30 31 32 33 34 35 36 37 38 39 40 41 42 43 44 45 46 47 48 49 50

000
ASUS42 KMHX 022112
RWRMHX
WEATHER ROUNDUP FOR EASTERN NORTH CAROLINA
NATIONAL WEATHER SERVICE NEWPORT/MOREHEAD CITY NC
400 PM EST FRI DEC 02 2016

NOTE: "FAIR" INDICATES FEW OR NO CLOUDS BELOW 12,000 FEET
WITH NO SIGNIFICANT WEATHER AND/OR OBSTRUCTIONS TO VISIBILITY

NCZ015>017-031-032-045>047-102-103-022200-
NORTH COAST

CITY           SKY/WX    TMP DP  RH WIND       PRES   REMARKS
EDENTON        CLEAR     56  34  42 CALM      30.07S
ELIZABETH CITY CLEAR     53  32  44 W9        30.05S
KITTY HAWK     CLEAR     51  38  60 CALM      30.04S
MANTEO         CLEAR     52  33  49 NW8       30.06S

$$

NCZ045>047-081-094-103-104-022200-
CENTRAL COAST

CITY           SKY/WX    TMP DP  RH WIND       PRES   REMARKS
FRISCO         CLEAR     54  37  52 VRB7      30.07R

$$

NCZ095-097-098-100-101-022200-
SOUTHERN COAST

CITY           SKY/WX    TMP DP  RH WIND       PRES   REMARKS
BEAUFORT       CLEAR     57  35  43 W10       30.07S
CEDAR ISLAND   NOT AVBL
JACKSONVILLE   CLEAR     57  31  37 W13       30.08F
PINEY ISLAND   CLEAR    N/A N/A N/A NW7       30.07R
WILMINGTON     SUNNY     58  32  37 NW10      30.10S


$$

NCZ011>013-027>030-043-044-078>080-089-090>093-098-022200-
COASTAL PLAIN

CITY           SKY/WX    TMP DP  RH WIND       PRES   REMARKS
AHOSKIE        CLEAR     54  32  44 CALM      30.07R
CLINTON        CLEAR     58  34  40 W7        30.10F
ELIZABETHTOWN  SUNNY     58  32  37 W8        30.11R
GOLDSBORO      CLEAR     57  29  33 NW12      30.07S
GREENVILLE     CLEAR     55  32  41 W6        30.09F
HAVELOCK       CLEAR     56  33  42 W10       30.08S
KENANSVILLE    CLEAR     57  30  35 NW7       30.10S
KINSTON        CLEAR     57  30  35 W5        30.09S
NEW BERN       CLEAR     56  32  40 W8        30.08F
RICHLANDS      CLEAR     56  33  42 W6        30.09F
ROCKY MOUNT    CLEAR     55  31  39 W9        30.09R
WASHINGTON     CLEAR     56  32  40 NW3       30.08S
WHITEVILLE     SUNNY     58  32  37 W3        30.11S

$$

AMZ130-135-150-152-154-156-158-170-250-252-270-ANZ085-086-088-633-658-670-022200-
MARINE OBSERVATIONS

STATION/POSITION TIME  TEMP    WIND        PRES    WAVE   SWELL
                       AIR SEA DIR/SP/G            HT/PER HT/PER
                 (UTC) (F)     (DEG/KT/KT) (MB)    (FT/S) (FT/S)
CHESAPEAKE LIGHT NOT AVBL
64 E VA BEACH    2050   52 60  300/ 14/ 17 1017.1    4/ 6   2/ 8
DUCK             2048   52 57  250/ 10/ 12 1017.1
2 E DUCK         NOT AVBL
OREGON INLET     2036   53 59  300/  7/ 11 1017.8
13E OREGON INLT  2100      61                N/A     3/ 6   3/ 6
HATTERAS CG      2048   53 63  270/  9/ 12 1017.9
DIAMOND BUOY     2050   55 76  310/ 10/ 16 1018.2    3/ 7   3/ 7
CAPE LOOKOUT     2100   57     290/ 10/ 13 1018.2
BEAUFORT LAB     2048   57 58  300/  5/  9 1017.4
30 SE NEW RVR IN 2008   57 72  320/ 12/ 16 1019.1
30 SE NEW RVR IN NOT AVBL
27 SE WRIGHTSVLE 2008   57 66  330/ 10/ 16 1018.9
5 SE WRIGHTSVLE  2008   56 64  330/ 10/ 16 1019.0
225 S CAPE HAT   2050   70 74  320/ 14/ 16 1016.8    4/ 6   3/ 7
41 SE CHARLESTON 2050   59 74  350/ 12/ 16 1019.6    4/ 5   2/ 9

$$



USA.gov is the U.S. government's official web portal to all federal, state and local government web resources and services.